Time,TemperatureF,DewpointF,PressureIn,WindDirection,WindDirectionDegrees,WindSpeedMPH,WindSpeedGustMPH,Humidity,HourlyPrecipIn,Conditions,Clouds,dailyrainin,SoftwareType,DateUTC
2015-01-25 00:01:00,52.5,48.4,29.94,NW,311,1.0,1.0,86,0.00,,,0.00,Wunderground v.1.15,2015-01-25 05:01:00,
2015-01-25 00:11:00,52.2,48.1,29.94,NW,311,1.0,1.0,86,0.00,,,0.00,Wunderground v.1.15,2015-01-25 05:11:00,
2015-01-25 00:20:00,51.9,47.8,29.93,West,275,1.0,3.0,86,0.00,,,0.00,Wunderground v.1.15,2015-01-25 05:20:00,
2015-01-25 00:31:00,51.7,47.6,29.93,West,263,2.0,2.0,86,0.00,,,0.00,Wunderground v.1.15,2015-01-25 05:31:00,
2015-01-25 00:40:00,51.4,47.4,29.93,West,273,2.0,4.0,86,0.00,,,0.00,Wunderground v.1.15,2015-01-25 05:40:00,
2015-01-25 00:46:00,51.3,47.3,29.93,WNW,302,2.0,4.0,86,0.00,,,0.00,Wunderground v.1.15,2015-01-25 05:46:00,
2015-01-25 00:55:00,51.1,47.1,29.94,SW,217,2.0,5.0,86,0.00,,,0.00,Wunderground v.1.15,2015-01-25 05:55:00,
2015-01-25 01:01:00,51.0,47.0,29.94,NW,304,2.0,2.0,86,0.00,,,0.00,Wunderground v.1.15,2015-01-25 06:01:00,
2015-01-25 01:11:00,50.7,47.0,29.94,West,279,2.0,2.0,87,0.00,,,0.00,Wunderground v.1.15,2015-01-25 06:11:00,
2015-01-25 01:21:00,50.4,46.7,29.94,West,280,1.0,6.0,87,0.00,,,0.00,Wunderground v.1.15,2015-01-25 06:21:00,
2015-01-25 01:30:00,50.1,46.7,29.94,West,280,1.0,3.0,88,0.00,,,0.00,Wunderground v.1.15,2015-01-25 06:30:00,
2015-01-25 01:36:00,49.9,46.5,29.94,West,280,1.0,3.0,88,0.00,,,0.00,Wunderground v.1.15,2015-01-25 06:36:00,
2015-01-25 01:45:00,49.8,46.7,29.94,West,277,1.0,3.0,89,0.00,,,0.00,Wunderground v.1.15,2015-01-25 06:45:00,
2015-01-25 01:50:00,49.6,46.5,29.94,SW,236,1.0,1.0,89,0.00,,,0.00,Wunderground v.1.15,2015-01-25 06:50:00,
2015-01-25 02:00:00,49.4,46.3,29.94,WSW,240,1.0,5.0,89,0.00,,,0.00,Wunderground v.1.15,2015-01-25 07:00:00,
2015-01-25 02:05:00,49.2,46.1,29.94,WSW,242,1.0,5.0,89,0.00,,,0.00,Wunderground v.1.15,2015-01-25 07:05:00,
2015-01-25 02:11:00,49.1,46.0,29.94,WSW,242,1.0,3.0,89,0.00,,,0.00,Wunderground v.1.15,2015-01-25 07:11:00,
2015-01-25 02:20:00,48.9,46.1,29.94,WNW,288,1.0,3.0,90,0.00,,,0.00,Wunderground v.1.15,2015-01-25 07:20:00,
2015-01-25 02:30:00,48.6,45.8,29.94,WNW,288,1.0,1.0,90,0.00,,,0.00,Wunderground v.1.15,2015-01-25 07:30:00,
2015-01-25 02:36:00,48.5,45.7,29.94,WNW,288,0.0,4.0,90,0.00,,,0.00,Wunderground v.1.15,2015-01-25 07:36:00,
2015-01-25 02:46:00,48.2,45.7,29.94,WNW,288,0.0,2.0,91,0.00,,,0.00,Wunderground v.1.15,2015-01-25 07:46:00,
2015-01-25 02:55:00,48.0,45.8,29.95,WNW,288,0.0,2.0,92,0.00,,,0.00,Wunderground v.1.15,2015-01-25 07:55:00,
2015-01-25 03:06:00,47.9,45.7,29.95,WNW,288,0.0,2.0,92,0.00,,,0.00,Wunderground v.1.15,2015-01-25 08:06:00,
2015-01-25 03:15:00,47.7,45.5,29.95,WNW,288,0.0,3.0,92,0.00,,,0.00,Wunderground v.1.15,2015-01-25 08:15:00,
2015-01-25 03:25:00,47.3,45.1,29.95,WNW,288,0.0,0.0,92,0.00,,,0.00,Wunderground v.1.15,2015-01-25 08:25:00,
2015-01-25 03:31:00,47.0,44.8,29.95,WNW,288,0.0,0.0,92,0.00,,,0.00,Wunderground v.1.15,2015-01-25 08:31:00,
2015-01-25 03:40:00,46.5,44.3,29.95,WNW,288,0.0,0.0,92,0.00,,,0.00,Wunderground v.1.15,2015-01-25 08:40:00,
2015-01-25 03:46:00,46.4,44.2,29.95,WNW,288,0.0,0.0,92,0.00,,,0.00,Wunderground v.1.15,2015-01-25 08:46:00,
2015-01-25 03:55:00,46.0,43.8,29.95,WNW,288,0.0,2.0,92,0.00,,,0.00,Wunderground v.1.15,2015-01-25 08:55:00,
2015-01-25 04:05:00,45.7,43.5,29.95,WNW,288,0.0,2.0,92,0.00,,,0.00,Wunderground v.1.15,2015-01-25 09:05:00,
2015-01-25 04:15:00,45.2,43.3,29.95,WNW,288,0.0,0.0,93,0.00,,,0.00,Wunderground v.1.15,2015-01-25 09:15:00,
2015-01-25 04:26:00,45.5,43.6,29.95,WNW,288,0.0,0.0,93,0.00,,,0.00,Wunderground v.1.15,2015-01-25 09:26:00,
2015-01-25 04:35:00,45.2,43.3,29.96,WNW,288,0.0,0.0,93,0.00,,,0.00,Wunderground v.1.15,2015-01-25 09:35:00,
2015-01-25 04:46:00,44.9,43.0,29.96,WNW,288,0.0,0.0,93,0.00,,,0.00,Wunderground v.1.15,2015-01-25 09:46:00,
2015-01-25 04:55:00,44.8,43.2,29.96,WNW,288,0.0,0.0,94,0.00,,,0.00,Wunderground v.1.15,2015-01-25 09:55:00,
2015-01-25 05:01:00,44.8,43.2,29.96,WNW,288,0.0,0.0,94,0.00,,,0.00,Wunderground v.1.15,2015-01-25 10:01:00,
2015-01-25 05:10:00,44.6,43.0,29.96,WNW,288,0.0,3.0,94,0.00,,,0.00,Wunderground v.1.15,2015-01-25 10:10:00,
2015-01-25 05:15:00,44.6,43.0,29.96,WNW,292,0.0,3.0,94,0.00,,,0.00,Wunderground v.1.15,2015-01-25 10:15:00,
2015-01-25 05:25:00,44.6,43.0,29.96,WNW,292,0.0,3.0,94,0.00,,,0.00,Wunderground v.1.15,2015-01-25 10:25:00,
2015-01-25 05:31:00,44.8,43.2,29.96,WNW,292,0.0,2.0,94,0.00,,,0.00,Wunderground v.1.15,2015-01-25 10:31:00,
2015-01-25 05:40:00,44.6,43.0,29.97,WNW,292,0.0,0.0,94,0.00,,,0.00,Wunderground v.1.15,2015-01-25 10:40:00,
2015-01-25 05:50:00,44.6,43.3,29.98,WNW,292,0.0,0.0,95,0.00,,,0.00,Wunderground v.1.15,2015-01-25 10:50:00,
2015-01-25 05:56:00,44.5,43.2,29.98,WNW,292,0.0,0.0,95,0.00,,,0.00,Wunderground v.1.15,2015-01-25 10:56:00,
2015-01-25 06:05:00,44.3,43.0,29.98,WNW,292,0.0,0.0,95,0.00,,,0.00,Wunderground v.1.15,2015-01-25 11:05:00,
2015-01-25 06:16:00,44.1,42.8,29.98,WNW,292,0.0,0.0,95,0.00,,,0.00,Wunderground v.1.15,2015-01-25 11:16:00,
2015-01-25 06:25:00,43.9,42.6,29.99,WNW,292,0.0,0.0,95,0.00,,,0.00,Wunderground v.1.15,2015-01-25 11:25:00,
2015-01-25 06:35:00,43.8,42.5,29.99,WNW,292,0.0,0.0,95,0.00,,,0.00,Wunderground v.1.15,2015-01-25 11:35:00,
2015-01-25 06:46:00,43.8,42.5,29.99,WNW,292,0.0,1.0,95,0.00,,,0.00,Wunderground v.1.15,2015-01-25 11:46:00,
2015-01-25 06:55:00,43.6,42.3,30.00,WNW,292,0.0,0.0,95,0.00,,,0.00,Wunderground v.1.15,2015-01-25 11:55:00,
2015-01-25 07:01:00,43.5,42.2,30.00,WNW,292,0.0,0.0,95,0.00,,,0.00,Wunderground v.1.15,2015-01-25 12:01:00,
2015-01-25 07:11:00,43.5,42.2,30.01,WNW,292,0.0,3.0,95,0.00,,,0.00,Wunderground v.1.15,2015-01-25 12:11:00,
2015-01-25 07:20:00,43.6,42.3,30.01,WNW,292,0.0,3.0,95,0.00,,,0.00,Wunderground v.1.15,2015-01-25 12:20:00,
2015-01-25 07:26:00,43.6,42.3,30.01,WNW,292,0.0,3.0,95,0.00,,,0.00,Wunderground v.1.15,2015-01-25 12:26:00,
2015-01-25 07:35:00,43.9,42.6,30.01,WNW,292,0.0,1.0,95,0.00,,,0.00,Wunderground v.1.15,2015-01-25 12:35:00,
2015-01-25 07:41:00,44.3,43.2,30.01,WNW,292,0.0,2.0,96,0.00,,,0.01,Wunderground v.1.15,2015-01-25 12:41:00,
2015-01-25 07:50:00,45.7,44.6,30.02,WNW,292,0.0,2.0,96,0.00,,,0.01,Wunderground v.1.15,2015-01-25 12:50:00,
2015-01-25 08:01:00,46.4,45.0,30.02,WNW,292,0.0,0.0,95,0.00,,,0.01,Wunderground v.1.15,2015-01-25 13:01:00,
2015-01-25 08:11:00,47.1,45.7,30.03,WNW,292,0.0,2.0,95,0.00,,,0.01,Wunderground v.1.15,2015-01-25 13:11:00,
2015-01-25 08:16:00,47.7,46.1,30.03,WNW,293,0.0,2.0,94,0.00,,,0.01,Wunderground v.1.15,2015-01-25 13:16:00,
2015-01-25 08:25:00,48.8,46.9,30.03,NNW,333,1.0,3.0,93,0.00,,,0.01,Wunderground v.1.15,2015-01-25 13:25:00,
2015-01-25 08:36:00,50.4,47.0,30.03,NW,311,3.0,3.0,88,0.00,,,0.01,Wunderground v.1.15,2015-01-25 13:36:00,
2015-01-25 08:45:00,52.0,46.0,30.03,West,261,2.0,9.0,80,0.00,,,0.01,Wunderground v.1.15,2015-01-25 13:45:00,